Regional Weather Roundup
Issued by NWS Grand Forks, ND

Home | Current Version | Previous Version | Graphics & Text | Print | Product List | Glossary On
Versions: 1 2 3 4 5 6 7 8 9 10 11 12 13 14 15 16 17 18 19 20 21 22 23 24 25 26 27 28 29 30 31 32 33 34 35 36 37 38 39 40 41 42 43 44 45 46 47 48 49 50
000
ASUS43 KFGF 180631
RWRFGF
PRAIRIE TO PINES  WEATHER ROUNDUP
NATIONAL WEATHER SERVICE EASTERN NORTH DAKOTA/GRAND FORKS ND
1200 AM CST MON DEC 18 2017

 **SATELLITE DATA USED TO AUGMENT SKY COVER AT AUTOMATED STATIONS**
 *****  WEATHER ACROSS EASTERN NORTH DAKOTA  *****

CITY           SKY/WX    TMP DP  RH WIND       PRES   REMARKS
GRAND FORKS    CLOUDY    29  25  85 S18       29.70F WCI  16
6HR MIN TEMP:  16; 6HR MAX TEMP:  29;

GRAND FRKS AFB FAIR      31  24  76 SW15      29.68F WCI  20
GRAND FRKS NWS   N/A     28 N/A N/A S13         N/A  WCI  18
DEVILS LAKE    MOCLDY    32  25  75 SW14      29.66S WCI  22
6HR MIN TEMP:  29; 6HR MAX TEMP:  33;

FARGO          CLOUDY    30  28  92 S13       29.78F WCI  20
WAHPETON ARPT  CLOUDY    30  28  93 SE7       29.81F WCI  23
$$

 ***** WEATHER ACROSS CENTRAL AND WESTERN NORTH DAKOTA  *****

CITY           SKY/WX    TMP DP  RH WIND       PRES   REMARKS
BISMARCK       CLOUDY    35  25  66 SW6       29.72F
6HR MIN TEMP:  29; 6HR MAX TEMP:  37;

MINOT          FAIR      33  22  63 S9        29.62F
6HR MIN TEMP:  32; 6HR MAX TEMP:  38;

JAMESTOWN      CLOUDY    35  28  75 SW10      29.71F
6HR MIN TEMP:  26; 6HR MAX TEMP:  35;

MINOT AFB      FAIR      31  22  68 W10       29.61F WCI  22
GARRISON         N/A     30  22  72 W8        29.66F WCI  22
WILLISTON      MOCLDY    33  24  69 SW9       29.65F
6HR MIN TEMP:  30; 6HR MAX TEMP:  36;

DICKINSON      CLOUDY    34  19  54 W15       29.68F WCI  24
6HR MIN TEMP:  31; 6HR MAX TEMP:  36;

HETTINGER      FAIR      32  19  58 W15       29.75F WCI  22
6HR MIN TEMP:  31; 6HR MAX TEMP:  34;

$$

 *****  OTHER AIRPORT OBSERVATIONS IN OUR AREA  *****

CITY           SKY/WX    TMP DP  RH WIND       PRES   REMARKS
WALHALLA       FAIR      36  27  69 VRB7      29.63R
GRAFTON AIRPOR NOT AVBL
VALLEY CITY AR NOT AVBL
CANDO          MOCLDY    28  28 100 SW10      29.64F WCI  19
CAVALIER APRT  FAIR      34  27  75 SW8       29.63F
GWINNER          N/A     32  30  93 SW9       29.77F WCI  24
SHEYENNE NWR     N/A     30  30 100 SW6       29.95S WCI  24
ROLLA          FAIR      28  23  80 SW16      29.57F WCI  17
 ***** THE ABOVE OBSERVATIONS ARE NON NWS ARE NOT QUALITY
       CONTROLLED AND MAY MIS-REPORT RAIN FOR SNOW...
$$

  *****  WEATHER ACROSS NORTHERN MINNESOTA  *****

CITY           SKY/WX    TMP DP  RH WIND       PRES   REMARKS
FLAG ISLAND    MOCLDY    18  16  93 S7        29.65F WCI   8
WARROAD        FAIR      27  23  86 S10G16    29.67F WCI  17
ROSEAU         CLOUDY    28  23  80 S18       29.66F WCI  16
HALLOCK        CLOUDY    27  25  93 S17       29.65F WCI  14
THF RVR FALLS  CLOUDY    28  28 100 S17       29.72F WCI  16
6HR MIN TEMP:  22; 6HR MAX TEMP:  29; 6HR PCP: TRACE;

BAUDETTE       CLOUDY    24  21  88 S14       29.72F WCI  12
6HR MIN TEMP:  20; 6HR MAX TEMP:  24;

WASKISH        CLOUDY    25  25 100 S8        29.75F WCI  16
CROOKSTON      CLOUDY    30  30 100 S16       29.73F FOG     WCI  19
STEPHEN NDAWN    N/A     27  25  93 S18         N/A  WCI  13
GREENBUSH NDAW   N/A     28  27  93 S17         N/A  WCI  16
$$
  *****  WEATHER ACROSS CENTRAL AND WEST MINNESOTA  *****

CITY           SKY/WX    TMP DP  RH WIND       PRES   REMARKS
FOSSTON        CLOUDY    27  27 100 S14       29.75F FOG     WCI  15
BEMIDJI        CLOUDY    25  24  98 S7        29.77F WCI  17
6HR MIN TEMP:  20; 6HR MAX TEMP:  25;

PARK RAPIDS    CLOUDY    26  24  92 S7        29.79F FOG     WCI  18
6HR MIN TEMP:  25; 6HR MAX TEMP:  28;

ELBOW LAKE     CLOUDY    28  27  96 SE9       29.83F FOG     WCI  19
6HR MIN TEMP:  22; 6HR MAX TEMP:  28;

WADENA         CLOUDY    25  25 100 S7        29.82F FOG     WCI  17
DETROIT LAKES  FAIR      28  28 100 S7        29.79F FOG     WCI  21
MOORHEAD       CLOUDY    28  27  93 S14       29.78F WCI  17
FERGUS FALLS   MOCLDY    28  28 100 S8        29.84F FOG     WCI  20
MORRIS MN      CLOUDY    28  27  93 S7        29.84F FOG     WCI  21
STAPLES        CLOUDY    23  23 100 S6        29.83F FOG     WCI  16
$$
  *****  WEATHER ELSEWHERE ACROSS MINNESOTA  *****

CITY           SKY/WX    TMP DP  RH WIND       PRES   REMARKS
DULUTH         CLOUDY    23  22  96 SW8       29.85F WCI  14
6HR MIN TEMP:  23; 6HR MAX TEMP:  24;

INTRNTL FALLS  CLOUDY    25  22  88 VRB6      29.76F FOG     WCI  18
6HR MIN TEMP:  20; 6HR MAX TEMP:  28;

ELY            CLOUDY    21  21 100 SW9       29.81F WCI  11
CLOQUET        CLOUDY    25  19  80 S5        29.86F FOG     WCI  19
WHEATON        CLOUDY    34  28  80 S9        29.84F
BRAINERD       CLOUDY    24  20  84 S8        29.86F FOG     WCI  15
6HR MIN TEMP:  24; 6HR MAX TEMP:  27;

HIBBING        CLOUDY    24  24 100 VRB7      29.82F FOG     WCI  16
6HR MIN TEMP:  23; 6HR MAX TEMP:  24;

ALEXANDRIA     CLOUDY    28  25  88 S8        29.85F FOG     WCI  20
6HR MIN TEMP:  26; 6HR MAX TEMP:  28;

SAINT CLOUD    CLOUDY    24  21  88 CALM      29.89F
6HR MIN TEMP:  23; 6HR MAX TEMP:  25;

MINNEAPOLIS    CLOUDY    26  26 100 S6        29.93F FOG     WCI  19
6HR MIN TEMP:  26; 6HR MAX TEMP:  28;

$$

  *****  WEATHER ACROSS SOUTH DAKOTA  *****

CITY           SKY/WX    TMP DP  RH WIND       PRES   REMARKS
SIOUX FALLS    CLOUDY    34  28  79 S6        29.91F
6HR MIN TEMP:  27; 6HR MAX TEMP:  34;

BROOKINGS      CLOUDY    33  27  78 S8        29.87F
WATERTOWN      CLOUDY    32  29  88 S10       29.83F WCI  24
6HR MIN TEMP:  30; 6HR MAX TEMP:  33;

HURON          FAIR      33  28  81 MISG      29.85F
6HR MIN TEMP:  33; 6HR MAX TEMP:  38;

SISSETON         N/A     37  32  82 S8        29.81F
ABERDEEN       FAIR      31  29  92 S9        29.81F WCI  23
6HR MIN TEMP:  30; 6HR MAX TEMP:  34;

MITCHELL       FAIR      35  27  72 S12       29.89F
PIERRE         CLOUDY    31  28  89 SW8       29.82S WCI  23
6HR MIN TEMP:  30; 6HR MAX TEMP:  36;

MOBRIDGE       FAIR      31  26  82 SW6       29.75F
RAPID CITY     FAIR      27  16  63 SW3       29.85F
6HR MIN TEMP:  23; 6HR MAX TEMP:  32;

$$

  *****  SOME WEATHER IN NEARBY STATES *****

CITY           SKY/WX    TMP DP  RH WIND       PRES   REMARKS
GLASGOW MT     FAIR      34  22  61 W12       29.66F
6HR MIN TEMP:  31; 6HR MAX TEMP:  35;

GREAT FALLS MT FAIR      38  23  55 SW30G46   29.73F
6HR MIN TEMP:  35; 6HR MAX TEMP:  38;

CHEYENNE WY    FAIR      24  22  91 SW6       29.93R WCI  17
6HR MIN TEMP:  24; 6HR MAX TEMP:  35;

SCOTTSBLUFF NE FAIR      22  12  65 N8        29.95R WCI  12
6HR MIN TEMP:  20; 6HR MAX TEMP:  42;

OMAHA NE       FAIR      28  22  78 CALM      30.00F
6HR MIN TEMP:  27; 6HR MAX TEMP:  30;

DES MOINES IA  MOCLDY    29  25  85 W5        29.98F WCI  24
6HR MIN TEMP:  29; 6HR MAX TEMP:  36;

DAVENPORT IA   FOG       38  37  97 SW5       29.99S VSB 1/4
6HR MIN TEMP:  37; 6HR MAX TEMP:  39; 6HR PCP:  0.02;

CHICAGO IL     CLOUDY    40  31  70 S5        29.96F
6HR MIN TEMP:  40; 6HR MAX TEMP:  42;

EAU CLAIRE WI  CLOUDY    27  25  92 SW7       29.93F FOG     WCI  19
6HR MIN TEMP:  27; 6HR MAX TEMP:  28;

LA CROSSE WI   CLOUDY    31  28  89 W6        29.95F FOG
6HR MIN TEMP:  31; 6HR MAX TEMP:  32; 6HR PCP: TRACE;

$$

  *****  SOME NATIONAL WEATHER *****

CITY           SKY/WX    TMP DP  RH WIND       PRES   REMARKS
LA GUARDIA NY  CLOUDY    35  24  64 E7        30.19F
6HR MIN TEMP:  35; 6HR MAX TEMP:  36;

RALEIGH NC     CLOUDY    46  42  86 SW5       30.17F
6HR MIN TEMP:  45; 6HR MAX TEMP:  49; 6HR PCP: TRACE;

ATLANTA GA     CLOUDY    47  46  97 E3        30.16F
6HR MIN TEMP:  45; 6HR MAX TEMP:  47; 6HR PCP: TRACE;

NEW ORLEANS LA FAIR      65  65 100 S8        30.13S
6HR MIN TEMP:  65; 6HR MAX TEMP:  68;

OKLAHOMA CITY  FOG       39  39 100 S6        30.10S VSB 1/8
6HR MIN TEMP:  35; 6HR MAX TEMP:  44;

ALBUQUERQUE NM FAIR      38  31  76 NE3       30.12R
6HR MIN TEMP:  34; 6HR MAX TEMP:  50;

SALT LAKE CITY FAIR      28  22  78 SE5       30.28R WCI  23
6HR MIN TEMP:  27; 6HR



USA.gov is the U.S. government's official web portal to all federal, state and local government web resources and services.